Regional Weather Roundup
Issued by NWS

Home | Current Version | Previous Version | Graphics & Text | Print | Product List | Glossary On
Versions: 1 2 3 4 5 6 7 8 9 10 11 12 13 14 15 16 17 18 19 20 21 22 23 24 25 26 27 28 29 30 31 32 33 34 35 36 37 38 39 40 41 42 43 44 45 46 47 48 49 50
000
ASUS43 KLOT 241204
RWRIL

ILLINOIS REGIONAL WEATHER ROUNDUP
NATIONAL WEATHER SERVICE CHICAGO/ROMEOVILLE IL
700 AM CDT WED AUG 24 2016

NOTE: "FAIR" INDICATES FEW OR NO CLOUDS BELOW 12,000 FEET WITH NO
SIGNIFICANT WEATHER AND/OR OBSTRUCTIONS TO VISIBILITY.

* THESE STATIONS ARE NOT UNDER NWS QUALITY CONTROL. THEY ALSO MAY NOT
  REPORT WEATHER SUCH AS PRECIPITATION OR FOG.

ILZ001-002-007-009-015-016-024-241300-
NORTHWEST ILLINOIS

CITY           SKY/WX    TMP DP  RH WIND       PRES   REMARKS
MOLINE         CLOUDY    73  71  93 E8        29.94R
6HR MIN TEMP:  72; 6HR MAX TEMP:  74; 6HR PCP:  0.74;

STERLING*      RAIN      72  71  97 VRB5      29.98R
SAVANNA*       LGT RAIN  71  70  98 E9        29.91F
$$

ILZ003-004-008-010-011-017-018-241300-
NORTH CENTRAL ILLINOIS

CITY           SKY/WX    TMP DP  RH WIND       PRES   REMARKS
ROCKFORD       TSTM      72  69  90 SW9       29.99R FOG
6HR MIN TEMP:  70; 6HR MAX TEMP:  73; 6HR PCP:  0.08;

FREEPORT*      HVY RAIN  69  68  97 S7        30.00F
ROCHELLE*      RAIN      69  69  99 S6        30.00R
$$

ILZ005-006-012>014-019>023-241300-
NORTHEAST ILLINOIS

CITY           SKY/WX    TMP DP  RH WIND       PRES   REMARKS
CHICAGO-OHARE  CLOUDY    71  66  84 S13       29.99F
6HR MIN TEMP:  70; 6HR MAX TEMP:  74;

CHICAGO-MIDWAY CLOUDY    72  65  78 S8G20     30.00F
6HR MIN TEMP:  72; 6HR MAX TEMP:  75;

AURORA         LGT RAIN  70  67  90 S9        29.99F FOG
6HR MIN TEMP:  69; 6HR MAX TEMP:  73; 6HR PCP:  0.05;

LANSING*       MOCLDY    71  65  82 S9G16     30.02F
JOLIET*        CLOUDY    71  69  92 S5        30.00S
WAUKEGAN       MOCLDY    73  68  84 S16       29.96F
6HR MIN TEMP:  72; 6HR MAX TEMP:  75;

DUPAGE AIRPORT LGT RAIN  71  67  87 S10       29.99S
6HR MIN TEMP:  70; 6HR MAX TEMP:  73; 6HR PCP: TRACE;

KANKAKEE*      CLOUDY    70  67  91 S12       30.03S
WHEELING       CLOUDY    72  67  84 S12       29.99F
6HR MIN TEMP:  71; 6HR MAX TEMP:  75;

ROMEOVILLE*    CLOUDY    69  65  88 S7        30.00F
NORTHERLY ISL    N/A     72  65  78 SW14        N/A
$$

LMZ740>746-241300-
SOUTHERN LAKE MICHIGAN

STATION/POSITION SKY/WX   TEMP    WIND        PRES    VSBY  WAVE
                          AIR SEA DIR/SP/G                  HT/PER
                          (F)     (DEG/KT/KT) (MB)    (MI)  (FT/S)
WILMETTE HARBOR            71 70  210/ 12/ 16   N/A           2/ 4
HARRISON CRIB              72     190/ 17/ 18   N/A
BURNHAM HARBOR             72     200/ 10/ 15   N/A
CALUMET HARBOR             72     170/ 12/ 17 1016.0S
BURNS HARBOR               71     180/ 11/ 22 1017.3F
MICHIGAN CITY              71     150/ 14/ 18   N/A
MICHIGAN CITY 6N           71 73  190/ 16/ 21   N/A           2
ST. JOSEPH                 72 74  160/ 16/ 19 1017.1F         2/ 3
$$

ILZ025>027-034>036-040-047-049-050-058-095>099-241300-
WEST-CENTRAL ILLINOIS

CITY           SKY/WX    TMP DP  RH WIND       PRES   REMARKS
QUINCY         CLOUDY    75  74  96 S14       29.95S
GALESBURG*     CLOUDY    73  72  97 SE6       29.96R
MACOMB*        LGT RAIN  73  72  98 S12       29.95R
JACKSONVILLE*  MOCLDY    75  73  91 S12       29.98R
PITTSFIELD*    CLOUDY    75  73  92 S10       29.99R
$$

ILZ028>032-037-038-041>044-048-051>054-059>061-241300-
CENTRAL ILLINOIS

CITY           SKY/WX    TMP DP  RH WIND       PRES   REMARKS
PONTIAC        CLOUDY    73  72  98 S9        30.02R
BLOOMINGTON    LGT RAIN  73  71  93 S14       30.03R
DECATUR        CLOUDY    74  71  91 S20G25    30.03F
PEORIA         CLOUDY    73  73 100 S12       29.97R FOG
6HR MIN TEMP:  71; 6HR MAX TEMP:  73; 6HR PCP:  0.47;

LACON*         TSTM      72  71  96 W5        30.00R
LINCOLN*       TSTM      74  74  98 S6        29.99S
SPRINGFIELD    CLOUDY    75  73  93 S14G22    29.99S
6HR MIN TEMP:  73; 6HR MAX TEMP:  76; 6HR PCP:  0.03;

TAYLORVILLE    CLOUDY    73  72  97 S14       30.02F
6HR MIN TEMP:  71; 6HR MAX TEMP:  73;

$$

ILZ033-039-045-046-055>057-062-063-241300-
EAST-CENTRAL ILLINOIS

CITY           SKY/WX    TMP DP  RH WIND       PRES   REMARKS
CHAMPAIGN      CLOUDY    72  69  90 S10       30.05S
MATTOON        CLOUDY    73  70  90 S9        30.07F
PARIS*         CLOUDY    70  69  96 S6        30.09F
$$

ILZ079-100>102-241300-
SOUTHWEST ILLINOIS

CITY           SKY/WX    TMP DP  RH WIND       PRES   REMARKS
ALTON          MOCLDY    73  72  94 S12       30.03F
BELLEVILLE     MOCLDY    75  75 100 S2        30.05R
CAHOKIA*       CLOUDY    76  72  87 VRB3      30.05R
SPARTA*        CLOUDY    75  73  94 S10       30.09S
$$

ILZ064>066-069>071-074>076-080>082-084>086-088>090-092>094-241300-
SOUTH-CENTRAL ILLINOIS

CITY           SKY/WX    TMP DP  RH WIND       PRES   REMARKS
CARBONDALE     MOCLDY    75  72  90 S8        30.11S
6HR MIN TEMP:  73; 6HR MAX TEMP:  75;

EFFINGHAM*     MOCLDY    72  72 100 SE7       30.10F
MARION         MOCLDY    75  73  94 S8        30.13S
MT. VERNON     CLOUDY    73  68  83 S10       30.10F
CENTRALIA*     CLOUDY    75  74  96 S13       30.08S
SALEM*         MOCLDY    76  73  90 S10G18    30.09S
$$

ILZ067-068-072-073-078-083-087-091-241300-
SOUTHEAST ILLINOIS

CITY           SKY/WX    TMP DP  RH WIND       PRES   REMARKS
LAWRENCEVILLE  PTCLDY    71  70  96 S7        30.13R
FLORA*         CLOUDY    74  73  94 S8        30.10F
FAIRFIELD*     CLOUDY    73  72  97 S6        30.10F
HARRISBURG*    CLOUDY    73  72  96 CALM      30.14R
ROBINSON*      CLOUDY    70  69  96 S8        30.12S
CARMI*         CLOUDY    71  71 100 S7        30.12S
$$

ABBREVIATIONS USED IN REMARKS
   TC - TEMPERATURE IN CELSIUS
  WCI - WIND CHILL INDEX
   HX - HEAT INDEX
  VSB - VISIBILITY
$$





USA.gov is the U.S. government's official web portal to all federal, state and local government web resources and services.